パンスターズ彗星

C/2016 N6 ( PanSTARRS )

English version
Home page
Updated on November 7, 2017

---------------------------------------------------------------------

・ プロフィール

発見日 2016年7月14日
発見光度 20.7等
発見者 Pan-STARRS 1 telescope (Haleakala)

・ 写真集

・ 軌道要素

Epoch 2018 July 21.0 TT = JDT 2458320.5
T 2018 July 18.21014 TT                                 MPCW
q   2.6691028            (2000.0)            P               Q
z  +0.0004633      Peri.  162.80505     -0.53334833     +0.08478910
 +/-0.0000013      Node   298.97607     +0.61778034     +0.71870133
e   0.9987634      Incl.  105.83221     +0.57782957     -0.69012985
From 654 observations 2016 June 27-2017 July 5, mean residual 0".4.

・ 星図

・ 光度変化

        m1 = 3.5 + 5 logΔ + 14.0 log r

---------------------------------------------------------------------

軌道要素はM.P.E.C. 2017-N58に掲載されたものです。
星図はステラナビゲータ Ver.10 (アストロアーツ) で作成したものです。
光度グラフはComet for Windowsで作成したものです。

---------------------------------------------------------------------

Copyright(C) Seiichi Yoshida (comet@aerith.net). All rights reserved.